Regional Weather Roundup
Issued by NWS Lake Charles, LA

Current Version | Previous Version | Text Only | Print | Product List | Glossary On
Versions: 1 2 3 4 5 6 7 8 9 10 11 12 13 14 15 16 17 18 19 20 21 22 23 24 25 26 27 28 29 30 31 32 33 34 35 36 37 38 39 40 41 42 43 44 45 46 47 48 49 50
000
ASUS44 KLCH 290310
RWRLCH
RWRLCH
REGIONAL WEATHER ROUNDUP
NATIONAL WEATHER SERVICE LAKE CHARLES LA
1000 PM CDT SAT MAR 28 2015

Note: "fair" indicates few or no clouds below 12,000 feet with no
significant weather and/or obstructions to visibility.


ACROSS SOUTHEAST TEXAS

CITY           SKY/WX    TMP DP  RH WIND       PRES   REMARKS
BEAUMONT       CLEAR     64  60  87 MISG      30.14R
BEAUMONT CITY    N/A     62  59  90 S9        30.14R
ORANGE         CLEAR     64  59  82 S10       30.16R
JASPER         CLEAR     67  56  67 S5        30.14R
$$

ACROSS CENTRAL LOUISIANA

CITY           SKY/WX    TMP DP  RH WIND       PRES   REMARKS
LEESVILLE      CLEAR     64  55  74 SE6       30.14R
FULLERTON        N/A     65  54  67 VRB3      30.13R
ALEXANDRIA INT CLEAR     63  53  70 S6        30.14R
ESLER FIELD    CLEAR     62  52  69 S3        30.16R
DERIDDER         N/A     64  55  73 CALM      30.15R
OAKDALE        CLEAR     55  53  91 CALM      30.17R
OPELOUSAS        N/A     60  55  83 SE8       30.17R
$$

ACROSS SOUTHWEST AND SOUTH CENTRAL LOUISIANA

CITY           SKY/WX    TMP DP  RH WIND       PRES   REMARKS
SULPHUR        CLEAR     65  62  90 S10       30.16R
LAKE CHARLES   CLEAR     62  58  86 S5        30.15R
CHENNAULT INT  CLEAR     61  57  88 S6          N/A
CAMERON PHI    NOT AVBL
DEQUINCY         N/A     61  59  94 S5        30.14R
JENNINGS         N/A     62  58  88 S6        30.16R
LAFAYETTE      CLEAR     61  55  81 S7        30.18R
NEW IBERIA     CLEAR     58  54  86 SE8       30.19R
ABBEVILLE        N/A     60  57  91 SE7       30.18R
PATTERSON      CLEAR     57  52  82 SE6       30.20R
SALT POINT       N/A     61  56  83 SE7       30.19R
$$

SELECTED SITES ACROSS THE REGION

CITY           SKY/WX    TMP DP  RH WIND       PRES   REMARKS
HOUSTON BUSH   CLEAR     68  44  42 S8        30.11R
HOUSTON HOBBY  CLEAR     65  54  67 S7        30.12R
GALVESTON      CLEAR     64  63  96 S8        30.15R
COLLEGE STAT   CLEAR     67  44  43 S12       30.07R
CONROE         CLEAR     67  36  31 S7        30.11R
HUNTSVILLE     CLEAR     68  43  40 S13       30.08R
LUFKIN         CLEAR     65  50  58 SE5       30.09R
SHREVEPORT     CLEAR     63  46  54 E15G23    30.11R
MONROE         CLEAR     51  37  58 NE10      30.22R
NATCHEZ MS     CLEAR     57  43  58 E10       30.20R
BATON ROUGE    CLEAR     58  49  72 SE6       30.20R
N.O. INTL ARPT CLEAR     58  48  69 SE8       30.23R
SLIDELL        CLEAR     53  48  83 CALM      30.23R
$$

MARINE REPORTS

STATION/POSITION TIME  TEMP    WIND        PRES    VSBY  WAVE
                       AIR SEA DIR/SP/G                  HT/PER
                 (UTC) (F)     (DEG/KT/KT) (MB)    (MI)  (FT/S)
BUOY 30 S HIGH I 0250   66 65  170/  8/ 10 1020.7R         1/ 4
SEA RIM ST PARK  0300   65     190/  9/ 11 1021.4R
PORT ARTHUR      0200      68  200/  6/  9 1020.7R
SABINE PASS N    0200   65 67  200/  8/ 11 1020.8R
TEXAS POINT      NOT AVBL
CALCASIEU PASS   0200   66 64  200/ 13/ 14   N/A
LK CHARLES BEACH 0200   64 67              1020.5R
MARSH ISLAND     NOT AVBL
FRESH WATER LOCK 0200   65 67  150/  8/ 10 1021.4R
AMERADA PASS     0200   62 60  140/  3/  5 1022.2R
$$


USA.gov is the U.S. government's official web portal to all federal, state and local government web resources and services.